This is the latest recevied weather packets stored in our database for station/object KC8YYF. If no packets are shown the sender has not sent any weather packets the latest 10 day(s).
| Time | Temp. | Humidity | Pressure | Rain* | Wind** | Luminosity | Snow |
|---|---|---|---|---|---|---|---|
| 1777872390 | 9.44° C | 74% | 1013.7 hPa | 0 mm | - | 0 W/m² | - |
| 1777872088 | 8.89° C | 76% | 1013.8 hPa | 0 mm | - | 0 W/m² | - |
| 1777871784 | 8.89° C | 75% | 1013.8 hPa | 0 mm | - | 0 W/m² | - |
| 1777871481 | 8.89° C | 77% | 1013.9 hPa | 0 mm | - | 0 W/m² | - |
| 1777871178 | 8.89° C | 75% | 1014 hPa | 0 mm | - | 0 W/m² | - |
| 1777870875 | 8.89° C | 76% | 1013.7 hPa | 0 mm | - | 0 W/m² | - |
| 1777870572 | 8.89° C | 74% | 1013.9 hPa | 0 mm | - | 0 W/m² | - |
| 1777870266 | 8.89° C | 74% | 1014 hPa | 0 mm | - | 0 W/m² | - |
| 1777869965 | 8.89° C | 76% | 1014 hPa | 0 mm | - | 0 W/m² | - |
| 1777869661 | 8.89° C | 75% | 1014.1 hPa | 0 mm | - | 0 W/m² | - |
| 1777869358 | 8.89° C | 75% | 1013.8 hPa | 0 mm | - | 0 W/m² | - |
| 1777869055 | 8.89° C | 75% | 1014 hPa | 0 mm | - | 0 W/m² | - |
| 1777868752 | 8.89° C | 74% | 1014.1 hPa | 0 mm | - | 0 W/m² | - |
| 1777868449 | 8.89° C | 76% | 1013.9 hPa | 0 mm | - | 0 W/m² | - |
| 1777868145 | 8.89° C | 76% | 1014 hPa | 0 mm | - | 0 W/m² | - |
| 1777867842 | 8.89° C | 76% | 1014.2 hPa | 0 mm | - | 0 W/m² | - |
| 1777867539 | 8.89° C | 76% | 1014.3 hPa | 0 mm | - | 0 W/m² | - |
| 1777867236 | 8.89° C | 78% | 1014.2 hPa | 0 mm | - | 0 W/m² | - |
| 1777866932 | 8.89° C | 76% | 1014.4 hPa | 0 mm | - | 0 W/m² | - |
| 1777866629 | 8.89° C | 75% | 1014.3 hPa | 0 mm | - | 0 W/m² | - |
| 1777866327 | 9.44° C | 73% | 1014.4 hPa | 0 mm | - | 0 W/m² | - |
| 1777866023 | 9.44° C | 77% | 1014.2 hPa | 0 mm | - | 0 W/m² | - |
| 1777865721 | 9.44° C | 75% | 1014.6 hPa | 0 mm | - | 0 W/m² | - |
| 1777865419 | 10° C | 75% | 1014.2 hPa | 0 mm | - | 0 W/m² | - |
| 1777865115 | 10° C | 74% | 1014.4 hPa | 0 mm | - | 0 W/m² | - |
* Rain latest hour (hover to see other rain measurements)
** Current wind speed in m/s (hover to see current wind gust speed)